Radiation Dose at Monitoring Post of Fukushima Daini Nuclear Power Station
Date,Time,MP-1(microSv/h),MP-2(microSv/h),MP-3(microSv/h),MP-4(microSv/h),MP-5(microSv/h),MP-6(microSv/h),MP-7(microSv/h),Wind Direction,Wind Velocity(m/s),Rain
2017/06/16,00:00,0.366,0.225,0.376,0.348,0.327,0.189,0.118,south-southwest,4.3,Yes
2017/06/16,00:10,0.362,0.226,0.374,0.350,0.331,0.188,0.118,south-southwest,5.2,Yes
2017/06/16,00:20,0.367,0.227,0.376,0.350,0.329,0.190,0.119,south-southwest,5.9,Yes
2017/06/16,00:30,0.364,0.227,0.378,0.353,0.332,0.190,0.121,southwest,5.1,Yes
2017/06/16,00:40,0.367,0.228,0.376,0.350,0.329,0.191,0.120,south-southwest,5.6,Yes
2017/06/16,00:50,0.365,0.228,0.379,0.351,0.330,0.190,0.120,south-southwest,6.2,Yes
2017/06/16,01:00,0.368,0.228,0.378,0.351,0.331,0.193,0.122,south-southwest,4.8,Yes
2017/06/16,01:10,0.366,0.230,0.378,0.355,0.332,0.193,0.123,south-southwest,5.4,Yes
2017/06/16,01:20,0.371,0.231,0.380,0.353,0.333,0.195,0.123,south-southwest,5.6,Yes
2017/06/16,01:30,0.367,0.233,0.381,0.358,0.333,0.195,0.124,south-southwest,6.0,Yes
2017/06/16,01:40,0.370,0.235,0.380,0.353,0.334,0.196,0.125,south-southwest,7.1,Yes
2017/06/16,01:50,0.369,0.232,0.382,0.356,0.334,0.195,0.125,south-southwest,4.8,No
2017/06/16,02:00,0.372,0.231,0.377,0.352,0.333,0.192,0.123,south-southwest,5.0,No
2017/06/16,02:10,0.367,0.229,0.380,0.355,0.330,0.193,0.123,south-southwest,5.6,No
2017/06/16,02:20,0.366,0.230,0.376,0.350,0.332,0.193,0.121,south-southwest,4.8,No
2017/06/16,02:30,0.366,0.228,0.377,0.352,0.329,0.189,0.120,south-southwest,6.2,No
2017/06/16,02:40,0.365,0.228,0.375,0.349,0.329,0.190,0.119,south-southwest,6.2,No
2017/06/16,02:50,0.363,0.225,0.376,0.351,0.326,0.189,0.119,southwest,5.6,No
2017/06/16,03:00,0.364,0.227,0.373,0.346,0.329,0.188,0.118,southwest,3.8,No
2017/06/16,03:10,0.364,0.226,0.374,0.349,0.328,0.188,0.117,southwest,3.1,No
2017/06/16,03:20,0.363,0.225,0.374,0.346,0.330,0.187,0.118,southwest,3.0,No
2017/06/16,03:30,0.362,0.224,0.374,0.349,0.327,0.187,0.117,southwest,2.0,No
2017/06/16,03:40,0.363,0.225,0.371,0.348,0.328,0.187,0.117,west,1.1,No
2017/06/16,03:50,0.364,0.225,0.375,0.349,0.327,0.187,0.116,west-southwest,0.7,No
2017/06/16,04:00,0.362,0.223,0.371,0.346,0.327,0.187,0.117,south-southwest,2.5,No
2017/06/16,04:10,0.362,0.225,0.375,0.348,0.325,0.187,0.116,south-southwest,2.0,No
2017/06/16,04:20,0.363,0.223,0.371,0.346,0.328,0.187,0.115,south-southwest,1.9,No
2017/06/16,04:30,0.363,0.225,0.374,0.347,0.326,0.187,0.116,south-southwest,2.9,No
2017/06/16,04:40,0.361,0.223,0.370,0.347,0.327,0.186,0.116,south-southwest,2.8,No
2017/06/16,04:50,0.364,0.224,0.372,0.348,0.326,0.187,0.116,south-southwest,3.3,No
2017/06/16,05:00,0.362,0.224,0.372,0.346,0.327,0.186,0.115,south,3.6,No
2017/06/16,05:10,0.363,0.225,0.374,0.347,0.326,0.187,0.115,south,3.3,No
2017/06/16,05:20,0.362,0.224,0.372,0.347,0.328,0.186,0.116,south,2.5,No
2017/06/16,05:30,0.363,0.224,0.374,0.349,0.325,0.186,0.116,south-southwest,2.7,No
2017/06/16,05:40,0.362,0.224,0.371,0.346,0.327,0.187,0.116,south-southwest,3.4,No
2017/06/16,05:50,0.362,0.223,0.372,0.346,0.323,0.186,0.116,south-southwest,3.7,No
2017/06/16,06:00,0.362,0.224,0.374,0.348,0.327,0.186,0.116,south-southwest,3.1,No
2017/06/16,06:10,0.364,0.224,0.372,0.347,0.324,0.185,0.115,south-southwest,2.9,No
2017/06/16,06:20,0.361,0.222,0.373,0.347,0.327,0.187,0.115,south-southwest,2.0,No
2017/06/16,06:30,0.363,0.224,0.372,0.348,0.328,0.186,0.116,-,CALM,No
2017/06/16,06:40,0.360,0.222,0.371,0.346,0.325,0.187,0.115,-,CALM,No
2017/06/16,06:50,0.364,0.223,0.372,0.347,0.329,0.186,0.116,north,1.1,No
2017/06/16,07:00,0.361,0.225,0.370,0.345,0.326,0.188,0.116,-,CALM,No
2017/06/16,07:10,0.363,0.224,0.373,0.347,0.327,0.186,0.116,northwest,0.7,No
2017/06/16,07:20,0.363,0.223,0.370,0.347,0.329,0.187,0.115,north,1.1,No
2017/06/16,07:30,0.361,0.222,0.366,0.343,0.326,0.187,0.115,-,CALM,No
2017/06/16,07:40,0.364,0.224,0.371,0.346,0.326,0.186,0.116,northeast,1.5,No
2017/06/16,07:50,0.362,0.224,0.371,0.347,0.329,0.187,0.116,northeast,1.5,No
2017/06/16,08:00,0.362,0.225,0.369,0.344,0.325,0.187,0.116,north-northeast,2.0,No
2017/06/16,08:10,0.364,0.224,0.368,0.343,0.323,0.186,0.115,north-northeast,3.5,No
2017/06/16,08:20,0.361,0.224,0.372,0.348,0.327,0.187,0.116,north-northeast,5.0,No
2017/06/16,08:30,0.364,0.225,0.371,0.348,0.331,0.186,0.116,northeast,5.6,No
2017/06/16,08:40,0.362,0.224,0.370,0.346,0.327,0.185,0.115,north-northeast,7.1,No
2017/06/16,08:50,0.359,0.222,0.368,0.343,0.324,0.185,0.114,north,8.1,Yes
2017/06/16,09:00,0.362,0.226,0.369,0.340,0.327,0.191,0.118,east-southeast,2.9,Yes
2017/06/16,09:10,0.363,0.228,0.370,0.349,0.331,0.196,0.122,north-northeast,3.8,Yes
2017/06/16,09:20,0.366,0.232,0.374,0.350,0.335,0.198,0.123,north-northeast,3.8,Yes
2017/06/16,09:30,0.365,0.230,0.372,0.352,0.334,0.195,0.123,north-northeast,3.1,No
2017/06/16,09:40,0.368,0.231,0.372,0.350,0.331,0.194,0.122,north-northeast,2.3,No
2017/06/16,09:50,0.365,0.229,0.371,0.346,0.331,0.191,0.120,north,1.9,No
2017/06/16,10:00,0.359,0.226,0.368,0.348,0.329,0.188,0.120,north,2.2,No
2017/06/16,10:10,0.362,0.224,0.372,0.345,0.326,0.187,0.118,north-northwest,2.2,No
2017/06/16,10:20,0.361,0.224,0.367,0.343,0.326,0.185,0.117,north-northwest,1.6,No
2017/06/16,10:30,0.359,0.224,0.365,0.341,0.329,0.187,0.117,west-northwest,0.6,No
2017/06/16,10:40,0.356,0.223,0.362,0.340,0.326,-,0.116,-,CALM,No
2017/06/16,10:50,0.360,0.221,0.367,0.339,0.324,-,0.116,south,0.7,No
2017/06/16,11:00,0.360,0.222,0.366,0.345,0.322,-,0.115,south,1.9,No
2017/06/16,11:10,0.358,0.223,0.364,0.344,0.323,-,0.114,south-southeast,2.1,No
2017/06/16,11:20,0.356,0.222,0.364,0.342,0.323,-,0.114,south-southeast,2.7,No
2017/06/16,11:30,0.357,0.222,0.362,0.340,0.323,-,0.114,south-southeast,2.8,No
2017/06/16,11:40,0.360,0.220,0.362,0.339,0.328,-,0.113,south-southeast,2.4,No
2017/06/16,11:50,0.359,0.222,0.363,0.338,0.327,-,0.113,south-southeast,2.7,No
2017/06/16,12:00,0.359,0.222,0.367,0.340,0.324,-,0.113,southeast,2.7,No
2017/06/16,12:10,0.356,0.221,0.366,0.342,0.323,-,0.114,southeast,2.7,No
2017/06/16,12:20,0.357,0.220,0.365,0.342,0.322,-,0.114,east-southeast,1.8,No
2017/06/16,12:30,0.360,0.223,0.363,0.340,0.320,-,0.114,east-southeast,1.6,No
2017/06/16,12:40,0.360,0.223,0.363,0.339,0.323,-,0.113,southeast,2.2,No
2017/06/16,12:50,0.355,0.220,0.362,0.338,0.329,-,0.113,east-southeast,1.9,No
2017/06/16,13:00,0.361,0.221,0.368,0.339,0.329,-,0.114,east,1.8,No
2017/06/16,13:10,0.362,0.223,0.369,0.345,0.324,-,0.113,east-northeast,1.9,No
2017/06/16,13:20,0.357,0.221,0.364,0.343,0.325,-,0.113,northeast,2.8,No
2017/06/16,13:30,0.362,0.222,0.365,0.340,0.329,-,0.112,northeast,2.4,No
2017/06/16,13:40,0.362,0.223,0.370,0.344,0.326,-,0.112,northeast,2.7,No
2017/06/16,13:50,0.357,0.221,0.369,0.344,0.323,-,0.113,northeast,2.0,No
2017/06/16,14:00,0.362,0.221,0.364,0.341,0.327,-,0.114,east-southeast,0.8,No
2017/06/16,14:10,0.361,0.223,0.367,0.340,0.326,-,0.113,east-southeast,0.9,No
2017/06/16,14:20,0.358,0.221,0.367,0.344,0.323,-,0.113,northeast,2.2,No
2017/06/16,14:30,0.363,0.221,0.366,0.343,0.325,-,0.114,northeast,12.8,Yes
2017/06/16,14:40,0.362,0.223,0.365,0.340,0.328,-,0.114,east-northeast,11.8,Yes
2017/06/16,14:50,0.363,0.226,0.371,0.346,0.325,-,0.117,east-northeast,7.4,Yes
2017/06/16,15:00,0.367,0.230,0.370,0.346,0.333,-,0.121,north-northeast,4.7,Yes
2017/06/16,15:10,0.365,0.231,0.375,0.350,0.332,-,0.123,north,6.2,Yes
2017/06/16,15:20,0.371,0.234,0.371,0.350,0.335,-,0.124,north-northwest,6.5,Yes
2017/06/16,15:30,0.369,0.240,0.374,0.348,0.332,-,0.124,north,3.3,Yes
2017/06/16,15:40,0.378,0.246,0.371,0.342,0.330,-,0.129,east,6.4,Yes
2017/06/16,15:50,0.379,0.250,0.384,0.349,0.338,-,0.132,west-southwest,0.9,Yes
2017/06/16,16:00,0.383,0.252,0.381,0.352,0.340,-,0.134,east-northeast,7.4,Yes
2017/06/16,16:10,0.378,0.250,0.387,0.354,0.342,-,0.133,southwest,3.3,No
2017/06/16,16:20,0.378,0.247,0.380,0.352,0.337,-,0.130,south-southeast,0.5,No
2017/06/16,16:30,0.371,0.241,0.381,0.351,0.338,-,0.127,east-southeast,0.8,No
2017/06/16,16:40,0.368,0.239,0.374,0.348,0.332,-,0.124,north-northeast,2.1,No
2017/06/16,16:50,0.364,0.231,0.375,0.343,0.333,-,0.122,north,3.7,No
2017/06/16,17:00,0.360,0.231,0.368,0.343,0.328,-,0.121,north,3.0,Yes
2017/06/16,17:10,0.359,0.229,0.372,0.341,0.330,-,0.119,northwest,2.5,Yes
2017/06/16,17:20,0.355,0.227,0.365,0.341,0.327,0.180,0.118,northwest,2.7,Yes
2017/06/16,17:30,0.356,0.224,0.366,0.336,0.326,0.181,0.116,northwest,3.6,No
2017/06/16,17:40,0.351,0.223,0.362,0.340,0.326,0.179,0.115,north-northwest,5.6,No
2017/06/16,17:50,0.353,0.221,0.362,0.335,0.323,0.179,0.115,north,9.5,No
2017/06/16,18:00,0.350,0.220,0.360,0.336,0.323,0.176,0.114,north,8.9,No
2017/06/16,18:10,0.352,0.219,0.360,0.335,0.322,0.178,0.114,north-northwest,8.1,Yes
2017/06/16,18:20,0.350,0.219,0.360,0.336,0.325,0.177,0.113,north,7.7,Yes
2017/06/16,18:30,0.351,0.219,0.360,0.335,0.321,0.178,0.114,north-northwest,7.2,Yes
2017/06/16,18:40,0.348,0.220,0.358,0.335,0.324,0.176,0.113,north,8.0,No
2017/06/16,18:50,0.350,0.218,0.361,0.333,0.321,0.177,0.113,north-northwest,6.7,No
2017/06/16,19:00,0.348,0.218,0.358,0.336,0.324,0.176,0.112,north-northwest,5.9,No
2017/06/16,19:10,0.351,0.218,0.361,0.333,0.320,0.175,0.112,north-northwest,5.7,No
2017/06/16,19:20,0.349,0.217,0.358,0.336,0.324,0.176,0.112,north-northwest,5.5,No
2017/06/16,19:30,0.349,0.218,0.360,0.333,0.322,0.176,0.113,north-northwest,4.8,No
2017/06/16,19:40,0.349,0.216,0.356,0.335,0.323,0.176,0.111,northwest,4.5,No
2017/06/16,19:50,0.351,0.217,0.359,0.334,0.321,0.177,0.111,northwest,5.8,No
2017/06/16,20:00,0.348,0.216,0.355,0.335,0.323,0.176,0.112,north-northwest,7.4,No
2017/06/16,20:10,0.349,0.216,0.358,0.333,0.321,0.176,0.111,north-northwest,7.3,No
2017/06/16,20:20,0.348,0.217,0.357,0.335,0.323,0.176,0.112,north-northwest,8.6,No
2017/06/16,20:30,0.348,0.217,0.359,0.334,0.321,0.176,0.111,north-northwest,8.9,No
2017/06/16,20:40,0.348,0.218,0.357,0.335,0.324,0.176,0.112,northwest,8.4,No
2017/06/16,20:50,0.350,0.215,0.359,0.334,0.321,0.177,0.111,north-northwest,8.6,No
2017/06/16,21:00,0.349,0.218,0.357,0.336,0.322,0.176,0.111,north-northwest,7.7,No
2017/06/16,21:10,0.351,0.217,0.360,0.333,0.321,0.176,0.112,north-northwest,7.6,No
2017/06/16,21:20,0.347,0.218,0.357,0.335,0.321,0.175,0.111,north-northwest,6.1,No
2017/06/16,21:30,0.350,0.216,0.359,0.335,0.322,0.177,0.112,north-northwest,6.1,No
2017/06/16,21:40,0.349,0.216,0.358,0.335,0.322,0.176,0.112,northwest,6.2,No
2017/06/16,21:50,0.352,0.216,0.357,0.335,0.323,0.176,0.111,north-northwest,6.8,No
2017/06/16,22:00,0.348,0.217,0.360,0.334,0.321,0.176,0.111,north-northwest,5.6,No
2017/06/16,22:10,0.351,0.217,0.359,0.335,0.323,0.176,0.112,north-northwest,5.0,No
2017/06/16,22:20,0.349,0.217,0.360,0.334,0.321,0.177,0.111,north-northwest,5.4,No
2017/06/16,22:30,0.349,0.218,0.358,0.336,0.323,0.176,0.110,north-northwest,6.2,No
2017/06/16,22:40,0.350,0.217,0.361,0.335,0.323,0.176,0.112,north,6.7,No
2017/06/16,22:50,0.350,0.217,0.359,0.336,0.323,0.177,0.111,north,4.9,No
2017/06/16,23:00,0.350,0.218,0.359,0.335,0.323,0.176,0.111,north,5.9,No
2017/06/16,23:10,0.350,0.217,0.358,0.336,0.322,0.176,0.112,north,6.4,No
2017/06/16,23:20,0.351,0.216,0.359,0.335,0.323,0.177,0.112,north,7.0,No
2017/06/16,23:30,0.350,0.218,0.360,0.335,0.321,0.176,0.111,north,7.2,No
2017/06/16,23:40,0.351,0.218,0.358,0.336,0.325,0.176,0.111,north,7.2,No
2017/06/16,23:50,0.351,0.218,0.361,0.335,0.321,0.178,0.112,north,8.6,No
